User: anonymous   Login
Location: Unspecified
(0.0000°N, 0.0000°E)
Time: 21:15:34
(UTC+00:00)
Language:

DELFI C3 - Orbit

View from above orbital plane
View from above orbital plane
View from above satellite
View from above satellite

Ground track
Ground track

The orbit data is extracted from the following two-line orbital elements,

1 32789U 08021G   21125.37696925  .00001954  00000-0  12787-3 0  9995
2 32789  97.3798 162.3990 0010045 293.6653  66.3522 15.08839769710433
Epoch (UTC): 05 May 2021 09:02:50
Eccentricity: 0.0010045
inclination: 97.3798°
perigee height: 533 km
apogee height: 546 km
right ascension of ascending node: 162.3990°
argument of perigee: 293.6653°
revolutions per day: 15.08839769
mean anomaly at epoch: 66.3522°
orbit number at epoch: 71043

The dashed part of the orbit path shows where the satellite is in the earth's shadow,  

DLR